FW3958 Weather Reports


Display with metric or nautical units.
time (UTC)temp
F
wind
direction
speed
MPH
gust
MPH
rain 1hr
in
rain 24hr
in
rain mn
in
humidity
%
barometer
mb
20260906193047 68 257 3.0 8.0 0.00 0.00 0.00 85 1018.7
20260906191548 67 213 2.0 10.0 0.00 0.00 0.00 86 1018.5
20260906190044 68 209 1.0 4.0 0.00 0.00 0.00 85 1018.7
20260906184547 68 327 2.0 6.0 0.00 0.00 0.00 83 1018.5
20260906183047 67 9 2.0 8.0 0.00 0.00 0.00 75 1018.5
20260906181546 67 292 2.0 6.0 0.00 0.00 0.00 79 1018.5
20260906180040 67 14 0.0 5.0 0.00 0.00 0.00 81 1018.4
20260906174536 66 20 0.0 1.0 0.00 0.00 0.00 83 1018.4
20260906173030 65 249 0.0 0.0 0.00 0.00 0.00 90 1018.4
20260906171527 63 255 0.0 0.0 0.00 0.00 0.00 94 1018.4
20260906170023 61 241 0.0 0.0 0.00 0.00 0.00 98 1018.5
20260906164525 59 197 0.0 0.0 0.00 0.00 0.00 100 1018.5
20260906163019 59 184 0.0 0.0 0.00 0.00 0.00 100 1018.3
20260906161512 57 184 0.0 0.0 0.00 0.00 0.00 100 1018.3
20260906160010 56 184 0.0 0.0 0.00 0.01 0.00 100 1018.4
20260906154506 54 184 0.0 0.0 0.00 0.01 0.00 100 1018.3
20260906153002 52 184 0.0 0.0 0.00 0.01 0.00 100 1018.3
20260906151600 50 183 0.0 0.0 0.00 0.01 0.00 100 1018.2
20260906150100 49 183 0.0 0.0 0.00 0.01 0.00 100 1018.2
20260906144559 49 183 0.0 0.0 0.00 0.01 0.00 100 1018.0
20260906143059 49 183 0.0 0.0 0.00 0.01 0.00 100 1017.9
20260906141600 49 183 0.0 0.0 0.00 0.01 0.00 100 1017.8
20260906140056 48 183 0.0 0.0 0.00 0.01 0.00 100 1017.7
20260906134602 48 183 0.0 0.0 0.00 0.01 0.00 100 1017.6
20260906133056 48 183 0.0 0.0 0.00 0.01 0.00 100 1017.6
20260906131553 48 183 0.0 0.0 0.00 0.01 0.00 100 1017.6
20260906130121 49 183 0.0 0.0 0.00 0.01 0.00 100 1017.6
20260906124552 49 183 0.0 0.0 0.00 0.01 0.00 100 1017.6
20260906123051 49 183 0.0 0.0 0.00 0.01 0.00 100 1017.7
20260906121602 49 183 0.0 0.0 0.00 0.01 0.00 100 1017.6
20260906114548 49 183 0.0 0.0 0.00 0.01 0.00 100 1017.5
20260906113053 48 183 0.0 0.0 0.00 0.01 0.00 100 1017.6
20260906111546 48 183 0.0 0.0 0.00 0.01 0.00 100 1017.6
20260906110045 48 183 0.0 0.0 0.00 0.01 0.00 100 1017.7
20260906104543 48 183 0.0 0.0 0.00 0.01 0.00 100 1017.8
20260906103052 48 183 0.0 0.0 0.00 0.01 0.00 100 1017.7
20260906101546 48 183 0.0 0.0 0.00 0.01 0.00 100 1017.8
20260906100041 48 183 0.0 0.0 0.00 0.01 0.00 100 1017.9
20260906094539 49 183 0.0 0.0 0.00 0.01 0.00 100 1018.1
20260906093049 49 183 0.0 0.0 0.00 0.01 0.00 100 1017.9
20260906091540 49 182 0.0 0.0 0.00 0.01 0.00 100 1017.9
20260906090035 49 182 0.0 0.0 0.00 0.01 0.00 100 1017.8
20260906084534 49 182 0.0 0.0 0.00 0.01 0.00 100 1017.9
20260906083032 49 182 0.0 0.0 0.00 0.01 0.00 100 1017.9
20260906081531 50 182 0.0 0.0 0.00 0.01 0.00 100 1018.0
20260906080030 50 182 0.0 0.0 0.00 0.01 0.00 100 1017.9
20260906074529 50 182 0.0 0.0 0.00 0.01 0.00 100 1018.0
20260906073026 51 182 0.0 0.0 0.00 0.01 0.00 100 1018.1
20260906071525 51 180 0.0 0.0 0.00 0.01 0.00 100 1018.3
20260906070024 51 180 0.0 0.0 0.00 0.01 0.01 100 1018.3
20260906064533 51 180 0.0 0.0 0.00 0.01 0.01 100 1018.4
20260906063023 51 180 0.0 0.0 0.00 0.01 0.01 100 1018.3
20260906061525 52 180 0.0 0.0 0.00 0.01 0.01 100 1018.4
20260906060021 52 180 0.0 0.0 0.00 0.01 0.01 100 1018.5
20260906054532 53 180 0.0 0.0 0.00 0.01 0.01 100 1018.6
20260906053020 53 180 0.0 0.0 0.00 0.01 0.01 100 1018.6
20260906051520 54 180 0.0 0.0 0.00 0.01 0.01 100 1018.6
20260906050020 54 180 0.0 0.0 0.00 0.01 0.01 100 1018.7
20260906044519 55 180 0.0 0.0 0.00 0.01 0.01 99 1018.7
20260906043023 56 180 0.0 0.0 0.00 0.01 0.01 100 1018.7
20260906041518 56 180 0.0 1.0 0.00 0.01 0.01 99 1018.8
20260906040019 57 180 0.0 1.0 0.00 0.01 0.01 99 1018.8
20260906034517 57 180 0.0 1.0 0.00 0.01 0.01 98 1018.7
20260906033017 58 180 0.0 1.0 0.00 0.01 0.01 97 1018.7
20260906031518 58 180 0.0 2.0 0.00 0.01 0.01 96 1018.5
20260906030015 60 194 0.0 2.0 0.00 0.01 0.01 94 1018.6
20260906024514 61 202 0.0 3.0 0.00 0.01 0.01 92 1018.6
20260906023015 62 281 1.0 5.0 0.00 0.01 0.01 90 1018.7
20260906021523 63 282 0.0 3.0 0.00 0.01 0.01 88 1018.8
20260906020018 65 272 1.0 3.0 0.00 0.01 0.01 85 1018.8
20260906014517 65 261 0.0 5.0 0.00 0.01 0.01 87 1018.8
20260906013029 64 292 0.0 0.0 0.00 0.01 0.01 85 1018.8
20260906011512 64 263 0.0 6.0 0.00 0.01 0.01 84 1018.9
20260906010016 65 199 0.0 4.0 0.00 0.03 0.01 84 1018.8
20260906004513 65 283 0.0 6.0 0.00 0.03 0.01 82 1018.7
20260906003019 66 290 2.0 5.0 0.00 0.03 0.01 80 1018.7
20260906001512 66 265 2.0 6.0 0.00 0.03 0.01 82 1018.5
20260906000007 66 304 4.0 9.0 0.00 0.04 0.01 81 1018.6
20260905234504 67 298 0.0 5.0 0.00 0.04 0.01 79 1018.5
20260905233002 67 299 2.0 8.0 0.00 0.04 0.01 82 1018.4
20260905231600 65 283 0.0 6.0 0.00 0.04 0.01 83 1018.4
20260905230059 66 257 0.0 8.0 0.00 0.04 0.01 83 1018.6
20260905224601 65 309 3.0 7.0 0.00 0.04 0.01 83 1018.7
20260905223056 65 288 3.0 9.0 0.00 0.04 0.01 84 1018.8
20260905221554 64 249 1.0 6.0 0.00 0.04 0.01 87 1018.7
20260905220053 64 190 0.0 4.0 0.00 0.04 0.01 85 1018.8
20260905214553 65 286 0.0 5.0 0.00 0.04 0.01 83 1018.8
20260905213051 65 286 0.0 3.0 0.00 0.04 0.01 85 1018.8
20260905211552 64 285 1.0 6.0 0.00 0.04 0.01 85 1018.8
20260905210107 63 290 1.0 5.0 0.00 0.04 0.01 85 1018.8
20260905204552 63 198 1.0 4.0 0.00 0.04 0.01 88 1018.9
20260905203050 63 294 1.0 8.0 0.00 0.04 0.01 85 1018.9
20260905201549 66 329 2.0 9.0 0.00 0.04 0.01 83 1018.9
20260905200055 65 274 1.0 8.0 0.00 0.04 0.01 87 1018.8
20260905194548 65 316 3.0 7.0 0.00 0.04 0.01 86 1018.9